| time (UTC) | temp F | wind direction | speed MPH | gust MPH | rain 1hr in | rain 24hr in | rain mn in | humidity % | barometer mb |
| 20260506215007 | 57 | 187 | 2.0 | 6.0 | 0.00 | 0.00 | 1.53 | 88 | 1012.5 |
| 20260506214007 | 57 | 171 | 5.0 | 8.0 | 0.00 | 0.00 | 1.53 | 88 | 1012.5 |
| 20260506213007 | 58 | 187 | 8.0 | 10.0 | 0.00 | 0.00 | 1.53 | 87 | 1012.7 |
| 20260506212006 | 58 | 208 | 2.0 | 5.0 | 0.00 | 0.00 | 1.53 | 87 | 1012.5 |
| 20260506211007 | 59 | 166 | 2.0 | 7.0 | 0.00 | 0.00 | 1.53 | 87 | 1012.5 |
| 20260506210006 | 59 | 191 | 2.0 | 5.0 | 0.00 | 0.00 | 1.53 | 87 | 1012.4 |
| 20260506205006 | 59 | 218 | 0.0 | 2.0 | 0.00 | 0.00 | 1.53 | 86 | 1012.3 |
| 20260506204006 | 59 | 156 | 2.0 | 4.0 | 0.00 | 0.00 | 1.53 | 86 | 1012.3 |
| 20260506203006 | 59 | 162 | 4.0 | 7.0 | 0.00 | 0.00 | 1.53 | 86 | 1012.2 |
| 20260506202007 | 60 | 145 | 3.0 | 7.0 | 0.00 | 0.00 | 1.53 | 87 | 1012.1 |
| 20260506201006 | 60 | 180 | 5.0 | 7.0 | 0.00 | 0.00 | 1.53 | 86 | 1012.1 |
| 20260506200007 | 61 | 179 | 5.0 | 8.0 | 0.00 | 0.00 | 1.53 | 84 | 1011.8 |
| 20260506195007 | 62 | 148 | 0.0 | 0.0 | 0.00 | 0.00 | 1.53 | 83 | 1011.6 |
| 20260506194006 | 62 | 166 | 0.0 | 0.0 | 0.00 | 0.00 | 1.53 | 84 | 1011.4 |
| 20260506193007 | 62 | 178 | 0.0 | 0.0 | 0.00 | 0.00 | 1.53 | 85 | 1011.3 |
| 20260506192006 | 62 | 158 | 0.0 | 0.0 | 0.00 | 0.00 | 1.53 | 84 | 1011.2 |
| 20260506191006 | 62 | 218 | 0.0 | 5.0 | 0.00 | 0.00 | 1.53 | 84 | 1011.0 |
| 20260506190007 | 62 | 261 | 0.0 | 6.0 | 0.00 | 0.00 | 1.53 | 83 | 1010.8 |
| 20260506185006 | 63 | 204 | 3.0 | 6.0 | 0.00 | 0.00 | 1.53 | 83 | 1010.8 |
| 20260506184008 | 63 | 203 | 3.0 | 9.0 | 0.00 | 0.00 | 1.53 | 82 | 1010.8 |
| 20260506183007 | 63 | 274 | 2.0 | 7.0 | 0.00 | 0.00 | 1.53 | 82 | 1010.7 |
| 20260506182006 | 63 | 229 | 3.0 | 7.0 | 0.00 | 0.00 | 1.53 | 81 | 1010.6 |
| 20260506181006 | 63 | 255 | 2.0 | 5.0 | 0.00 | 0.00 | 1.53 | 82 | 1010.5 |
| 20260506180007 | 64 | 266 | 6.0 | 10.0 | 0.00 | 0.00 | 1.53 | 80 | 1010.4 |
| 20260506175007 | 65 | 238 | 3.0 | 7.0 | 0.00 | 0.00 | 1.53 | 79 | 1010.4 |
| 20260506174007 | 65 | 229 | 0.0 | 7.0 | 0.00 | 0.00 | 1.53 | 79 | 1010.3 |
| 20260506173007 | 65 | 258 | 4.0 | 9.0 | 0.00 | 0.00 | 1.53 | 78 | 1010.1 |
| 20260506172006 | 65 | 287 | 3.0 | 7.0 | 0.00 | 0.00 | 1.53 | 78 | 1010.1 |
| 20260506171007 | 65 | 271 | 7.0 | 13.0 | 0.00 | 0.00 | 1.53 | 76 | 1009.9 |
| 20260506170007 | 66 | 255 | 3.0 | 15.0 | 0.00 | 0.00 | 1.53 | 73 | 1009.8 |
| 20260506165008 | 66 | 241 | 4.0 | 14.0 | 0.00 | 0.00 | 1.53 | 72 | 1009.9 |
| 20260506164007 | 66 | 135 | 2.0 | 18.0 | 0.00 | 0.00 | 1.53 | 70 | 1009.9 |
| 20260506163006 | 66 | 292 | 10.0 | 19.0 | 0.00 | 0.00 | 1.53 | 68 | 1009.9 |
| 20260506162007 | 67 | 295 | 14.0 | 18.0 | 0.00 | 0.00 | 1.53 | 69 | 1009.9 |
| 20260506161007 | 66 | 258 | 6.0 | 18.0 | 0.00 | 0.00 | 1.53 | 70 | 1009.7 |
| 20260506160007 | 67 | 264 | 10.0 | 18.0 | 0.00 | 0.00 | 1.53 | 74 | 1009.8 |
| 20260506155007 | 66 | 287 | 9.0 | 18.0 | 0.00 | 0.00 | 1.53 | 76 | 1009.8 |
| 20260506154007 | 66 | 270 | 13.0 | 19.0 | 0.00 | 0.00 | 1.53 | 79 | 1009.8 |
| 20260506153007 | 65 | 289 | 18.0 | 22.0 | 0.00 | 0.00 | 1.53 | 81 | 1009.7 |
| 20260506152007 | 65 | 283 | 12.0 | 20.0 | 0.00 | 0.00 | 1.53 | 86 | 1009.7 |
| 20260506151008 | 64 | 288 | 12.0 | 19.0 | 0.00 | 0.00 | 1.53 | 90 | 1009.8 |
| 20260506150008 | 65 | 284 | 18.0 | 21.0 | 0.00 | 0.00 | 1.51 | 89 | 1009.8 |
| 20260506145007 | 66 | 281 | 12.0 | 21.0 | 0.00 | 0.00 | 1.51 | 82 | 1009.8 |
| 20260506144007 | 67 | 296 | 10.0 | 18.0 | 0.00 | 0.00 | 1.51 | 83 | 1009.7 |
| 20260506143007 | 68 | 278 | 15.0 | 22.0 | 0.00 | 0.00 | 1.51 | 80 | 1009.5 |
| 20260506142007 | 69 | 295 | 13.0 | 18.0 | 0.00 | 0.00 | 1.51 | 78 | 1009.5 |
| 20260506141007 | 69 | 266 | 11.0 | 21.0 | 0.00 | 0.00 | 1.51 | 79 | 1009.5 |
| 20260506140007 | 68 | 307 | 3.0 | 17.0 | 0.00 | 0.00 | 1.51 | 83 | 1009.4 |
| 20260506135007 | 67 | 288 | 11.0 | 13.0 | 0.00 | 0.00 | 1.51 | 83 | 1009.6 |
| 20260506134007 | 66 | 288 | 11.0 | 14.0 | 0.00 | 0.00 | 1.51 | 83 | 1009.8 |
| 20260506133007 | 66 | 293 | 12.0 | 17.0 | 0.00 | 0.00 | 1.51 | 79 | 1009.9 |
| 20260506132007 | 65 | 334 | 11.0 | 20.0 | 0.00 | 0.00 | 1.51 | 77 | 1009.9 |
| 20260506131007 | 66 | 207 | 10.0 | 22.0 | 0.00 | 0.00 | 1.51 | 76 | 1010.1 |
| 20260506130007 | 65 | 327 | 7.0 | 19.0 | 0.00 | 0.00 | 1.51 | 76 | 1010.3 |
| 20260506125007 | 66 | 308 | 6.0 | 27.0 | 0.00 | 0.00 | 1.51 | 71 | 1010.3 |
| 20260506124007 | 70 | 278 | 21.0 | 26.0 | 0.00 | 0.00 | 1.51 | 71 | 1010.1 |
| 20260506123008 | 70 | 291 | 13.0 | 21.0 | 0.00 | 0.00 | 1.51 | 76 | 1009.9 |
| 20260506122007 | 70 | 268 | 9.0 | 19.0 | 0.00 | 0.00 | 1.51 | 80 | 1009.8 |
| 20260506121007 | 69 | 242 | 12.0 | 16.0 | 0.00 | 0.00 | 1.51 | 79 | 1009.8 |
| 20260506120007 | 68 | 215 | 8.0 | 17.0 | 0.00 | 0.00 | 1.51 | 80 | 1009.6 |
| 20260506115007 | 68 | 218 | 15.0 | 18.0 | 0.00 | 0.00 | 1.51 | 79 | 1009.7 |
| 20260506114008 | 69 | 194 | 9.0 | 16.0 | 0.00 | 0.00 | 1.51 | 78 | 1009.7 |
| 20260506113007 | 69 | 210 | 5.0 | 17.0 | 0.00 | 0.00 | 1.51 | 79 | 1009.7 |
| 20260506112007 | 69 | 181 | 9.0 | 18.0 | 0.00 | 0.00 | 1.51 | 80 | 1009.8 |
| 20260506111007 | 68 | 218 | 8.0 | 17.0 | 0.00 | 0.00 | 1.51 | 83 | 1009.8 |
| 20260506110007 | 67 | 218 | 13.0 | 18.0 | 0.00 | 0.00 | 1.51 | 84 | 1009.9 |
| 20260506105007 | 67 | 212 | 6.0 | 19.0 | 0.00 | 0.00 | 1.51 | 83 | 1010.0 |
| 20260506104007 | 67 | 212 | 12.0 | 20.0 | 0.00 | 0.00 | 1.51 | 81 | 1010.0 |
| 20260506103007 | 68 | 242 | 6.0 | 21.0 | 0.00 | 0.00 | 1.51 | 80 | 1010.1 |
| 20260506102007 | 68 | 205 | 11.0 | 21.0 | 0.00 | 0.00 | 1.51 | 78 | 1010.1 |
| 20260506101007 | 69 | 198 | 11.0 | 24.0 | 0.00 | 0.00 | 1.51 | 79 | 1010.1 |
| 20260506100008 | 68 | 250 | 19.0 | 23.0 | 0.00 | 0.00 | 1.51 | 79 | 1010.0 |
| 20260506095007 | 68 | 194 | 10.0 | 16.0 | 0.00 | 0.00 | 1.51 | 80 | 1010.0 |
| 20260506094007 | 67 | 190 | 13.0 | 19.0 | 0.00 | 0.00 | 1.51 | 81 | 1010.0 |
| 20260506093008 | 67 | 224 | 13.0 | 19.0 | 0.00 | 0.00 | 1.51 | 82 | 1010.0 |
| 20260506092007 | 66 | 229 | 14.0 | 24.0 | 0.00 | 0.00 | 1.51 | 83 | 1009.9 |
| 20260506091007 | 66 | 223 | 12.0 | 21.0 | 0.00 | 0.00 | 1.51 | 84 | 1009.9 |
| 20260506090008 | 66 | 246 | 11.0 | 21.0 | 0.00 | 0.00 | 1.51 | 85 | 1010.0 |
| 20260506085007 | 66 | 219 | 18.0 | 23.0 | 0.00 | 0.00 | 1.51 | 86 | 1010.0 |
| 20260506084007 | 65 | 163 | 11.0 | 21.0 | 0.00 | 0.00 | 1.51 | 92 | 1009.8 |
| 20260506083007 | 64 | 260 | 10.0 | 16.0 | 0.00 | 0.00 | 1.51 | 94 | 1009.8 |
| 20260506082007 | 63 | 215 | 11.0 | 15.0 | 0.00 | 0.00 | 1.51 | 94 | 1010.0 |
| 20260506081008 | 62 | 224 | 6.0 | 17.0 | 0.00 | 0.00 | 1.51 | 94 | 1010.1 |
| 20260506073007 | 62 | 276 | 0.0 | 5.0 | 0.00 | 0.00 | 1.50 | 94 | 1010.0 |
| 20260506072007 | 62 | 138 | 0.0 | 3.0 | 0.00 | 0.00 | 1.50 | 94 | 1010.0 |
| 20260506071007 | 61 | 153 | 0.0 | 4.0 | 0.00 | 0.00 | 1.50 | 94 | 1009.9 |
| 20260506062007 | 60 | 90 | 0.0 | 0.0 | 0.00 | 0.00 | 1.50 | 94 | 1009.8 |
| 20260506061007 | 60 | 90 | 0.0 | 0.0 | 0.00 | 0.00 | 1.50 | 94 | 1009.8 |
| 20260506051008 | 58 | 288 | 0.0 | 3.0 | 0.00 | 0.00 | 1.49 | 94 | 1009.8 |
| 20260506045008 | 58 | 288 | 0.0 | 3.0 | 0.00 | 0.00 | 1.49 | 94 | 1009.5 |
| 20260506044008 | 58 | 288 | 0.0 | 3.0 | 0.00 | 0.00 | 1.49 | 94 | 1009.4 |
| 20260506043007 | 58 | 288 | 0.0 | 3.0 | 0.00 | 0.00 | 1.49 | 94 | 1009.5 |
| 20260506042007 | 58 | 288 | 0.0 | 3.0 | 0.00 | 0.00 | 1.49 | 94 | 1009.6 |
| 20260506041007 | 58 | 288 | 0.0 | 3.0 | 0.00 | 0.00 | 1.49 | 94 | 1009.7 |
| 20260506040007 | 58 | 288 | 0.0 | 3.0 | 0.00 | 0.00 | 1.49 | 94 | 1009.9 |
| 20260506035008 | 58 | 288 | 0.0 | 3.0 | 0.00 | 0.00 | 1.49 | 94 | 1010.1 |
| 20260506034007 | 58 | 288 | 0.0 | 3.0 | 0.00 | 0.00 | 1.49 | 94 | 1010.2 |
| 20260506033007 | 58 | 288 | 0.0 | 3.0 | 0.00 | 0.00 | 1.49 | 94 | 1010.2 |
| 20260506032008 | 58 | 288 | 0.0 | 3.0 | 0.00 | 0.00 | 1.49 | 94 | 1010.2 |
| 20260506031007 | 58 | 288 | 0.0 | 3.0 | 0.00 | 0.00 | 1.49 | 94 | 1010.3 |
| 20260506030008 | 59 | 288 | 0.0 | 3.0 | 0.00 | 0.00 | 1.48 | 94 | 1010.4 |
| 20260506025007 | 60 | 105 | 1.0 | 4.0 | 0.00 | 0.00 | 1.46 | 94 | 1010.3 |
| 20260506024008 | 59 | 75 | 5.0 | 8.0 | 0.00 | 0.00 | 1.34 | 94 | 1010.4 |
| 20260506023008 | 58 | 27 | 2.0 | 4.0 | 0.00 | 0.00 | 1.14 | 94 | 1010.3 |
| 20260506022007 | 58 | 347 | 1.0 | 8.0 | 0.00 | 0.00 | 0.94 | 94 | 1010.3 |
| 20260506021007 | 58 | 64 | 2.0 | 6.0 | 0.00 | 0.00 | 0.69 | 94 | 1010.5 |
| 20260506020007 | 58 | 43 | 1.0 | 5.0 | 0.00 | 0.00 | 0.45 | 94 | 1010.5 |
| 20260506015008 | 58 | 27 | 1.0 | 4.0 | 0.00 | 0.00 | 0.37 | 94 | 1010.4 |
| 20260506014007 | 57 | 5 | 2.0 | 5.0 | 0.00 | 0.00 | 0.32 | 94 | 1010.5 |
| 20260506013007 | 57 | 342 | 4.0 | 6.0 | 0.00 | 0.00 | 0.30 | 94 | 1010.7 |
| 20260506012007 | 57 | 75 | 3.0 | 6.0 | 0.00 | 0.00 | 0.20 | 93 | 1010.8 |
| 20260506011007 | 57 | 39 | 2.0 | 7.0 | 0.00 | 0.00 | 0.09 | 93 | 1010.6 |
| 20260506010007 | 57 | 52 | 7.0 | 8.0 | 0.00 | 0.00 | 0.07 | 92 | 1010.7 |
| 20260506005008 | 58 | 355 | 4.0 | 7.0 | 0.00 | 0.00 | 0.07 | 92 | 1011.0 |
| 20260506004007 | 58 | 44 | 5.0 | 9.0 | 0.00 | 0.00 | 0.07 | 92 | 1011.0 |
| 20260506003007 | 58 | 63 | 6.0 | 10.0 | 0.00 | 0.00 | 0.07 | 92 | 1011.2 |
| 20260506002007 | 58 | 43 | 2.0 | 8.0 | 0.00 | 0.00 | 0.07 | 92 | 1011.5 |
| 20260506001008 | 60 | 58 | 7.0 | 7.0 | 0.00 | 0.00 | 0.07 | 93 | 1011.5 |
| 20260506000008 | 60 | 26 | 0.0 | 4.0 | 0.00 | 0.00 | 0.07 | 93 | 1011.5 |
| 20260505235008 | 59 | 329 | 0.0 | 7.0 | 0.00 | 0.00 | 0.07 | 93 | 1011.5 |
| 20260505234008 | 60 | 298 | 5.0 | 11.0 | 0.00 | 0.00 | 0.07 | 93 | 1011.5 |
| 20260505233008 | 61 | 295 | 6.0 | 9.0 | 0.00 | 0.00 | 0.07 | 93 | 1011.6 |
| 20260505232008 | 61 | 109 | 5.0 | 5.0 | 0.00 | 0.00 | 0.07 | 93 | 1011.2 |
| 20260505231008 | 61 | 83 | 1.0 | 3.0 | 0.00 | 0.00 | 0.07 | 93 | 1011.4 |
| 20260505230009 | 61 | 60 | 1.0 | 3.0 | 0.00 | 0.00 | 0.07 | 93 | 1011.6 |
| 20260505225008 | 61 | 49 | 0.0 | 3.0 | 0.00 | 0.00 | 0.07 | 93 | 1011.7 |
| 20260505224008 | 61 | 153 | 2.0 | 7.0 | 0.00 | 0.00 | 0.04 | 92 | 1011.9 |
| 20260505223008 | 62 | 135 | 1.0 | 5.0 | 0.00 | 0.00 | 0.01 | 93 | 1012.0 |
| 20260505222008 | 62 | 135 | 0.0 | 4.0 | 0.00 | 0.00 | 0.01 | 93 | 1011.9 |
| 20260505221008 | 62 | 143 | 2.0 | 5.0 | 0.00 | 0.00 | 0.00 | 93 | 1012.0 |
| 20260505220008 | 62 | 159 | 4.0 | 5.0 | 0.00 | 0.00 | 0.00 | 93 | 1012.2 |